This is the latest recevied weather packets stored in our database for station/object KK4WXG. If no packets are shown the sender has not sent any weather packets the latest 1 day(s).
| Time | Temp. | Humidity | Pressure | Rain* | Wind** | Luminosity | Snow |
|---|---|---|---|---|---|---|---|
| 1777983989 | 17.78° C | 64% | 1011.9 hPa | 0 mm | 4.92 m/s, 228° | 335 W/m² | - |
| 1777983686 | 17.78° C | 63% | 1011.7 hPa | 0 mm | 2.68 m/s, 226° | 316 W/m² | - |
| 1777983382 | 17.22° C | 65% | 1011.8 hPa | 0 mm | 1.79 m/s, 214° | 296 W/m² | - |
| 1777983079 | 17.22° C | 66% | 1011.7 hPa | 0 mm | 2.68 m/s, 203° | 275 W/m² | - |
| 1777982775 | 16.67° C | 67% | 1011.7 hPa | 0 mm | 2.68 m/s, 206° | 253 W/m² | - |
| 1777982471 | 16.67° C | 68% | 1011.8 hPa | 0 mm | 1.34 m/s, 189° | 233 W/m² | - |
| 1777982166 | 16.11° C | 69% | 1011.6 hPa | 0 mm | 2.24 m/s, 216° | 212 W/m² | - |
| 1777981864 | 16.11° C | 68% | 1011.5 hPa | 0 mm | 2.24 m/s, 215° | 193 W/m² | - |
| 1777981561 | 15.56° C | 69% | 1011.4 hPa | 0 mm | 2.68 m/s, 201° | 172 W/m² | - |
| 1777981257 | 15.56° C | 70% | 1011.4 hPa | 0 mm | 2.24 m/s, 204° | 156 W/m² | - |
| 1777980953 | 15.56° C | 72% | 1011.4 hPa | 0 mm | 1.34 m/s, 210° | 144 W/m² | - |
| 1777980650 | 15° C | 74% | 1011.3 hPa | 0 mm | 0.89 m/s, 205° | 137 W/m² | - |
| 1777980347 | 14.44° C | 75% | 1011.5 hPa | 0 mm | 0.89 m/s, 188° | 128 W/m² | - |
| 1777980045 | 14.44° C | 75% | 1011.3 hPa | 0 mm | 1.34 m/s, 182° | 113 W/m² | - |
| 1777979744 | 13.33° C | 77% | 1011 hPa | 0 mm | 0.89 m/s, 172° | 98 W/m² | - |
| 1777979440 | 13.33° C | 78% | 1011.3 hPa | 0 mm | 0.89 m/s, 180° | 73 W/m² | - |
| 1777979137 | 12.78° C | 78% | 1011 hPa | 0 mm | 0.89 m/s, 178° | 57 W/m² | - |
| 1777978834 | 12.78° C | 79% | 1011 hPa | 0 mm | 0.45 m/s, 133° | 45 W/m² | - |
| 1777978530 | 12.22° C | 80% | 1010.8 hPa | 0 mm | 0.45 m/s, 162° | 39 W/m² | - |
| 1777978226 | 12.22° C | 81% | 1010.7 hPa | 0 mm | 0.45 m/s, 133° | 37 W/m² | - |
| 1777977923 | 12.22° C | 81% | 1010.9 hPa | 0 mm | 0 m/s | 33 W/m² | - |
| 1777977621 | 12.78° C | 80% | 1010.6 hPa | 0 mm | 0.45 m/s, 73° | 30 W/m² | - |
| 1777977317 | 12.78° C | 79% | 1010.7 hPa | 0 mm | 0.89 m/s, 121° | 29 W/m² | - |
| 1777977015 | 12.78° C | 80% | 1010.7 hPa | 0 mm | 0.45 m/s, 92° | 24 W/m² | - |
| 1777976712 | 12.22° C | 81% | 1010.4 hPa | 0 mm | 0 m/s | 19 W/m² | - |
* Rain latest hour (hover to see other rain measurements)
** Current wind speed in m/s (hover to see current wind gust speed)